TimeMST,TemperatureF,Dew PointF,Humidity,Sea Level PressureIn,VisibilityMPH,Wind Direction,Wind SpeedMPH,Gust SpeedMPH,PrecipitationIn,Events,Conditions,WindDirDegrees,DateUTC
12:53 AM,34.0,19.0,54,29.93,10.0,West,9.2,-,N/A,,Clear,280,2012-12-02 07:53:00
1:53 AM,30.9,19.0,61,29.95,10.0,WNW,6.9,-,N/A,,Clear,300,2012-12-02 08:53:00
2:53 AM,30.9,19.0,61,29.95,10.0,WNW,4.6,-,N/A,,Clear,300,2012-12-02 09:53:00
3:53 AM,34.0,19.0,54,29.93,10.0,WNW,8.1,-,N/A,,Clear,300,2012-12-02 10:53:00
4:53 AM,30.0,17.1,59,29.95,10.0,SSW,6.9,-,N/A,,Clear,210,2012-12-02 11:53:00
5:53 AM,30.0,17.1,59,29.94,10.0,West,10.4,-,N/A,,Clear,270,2012-12-02 12:53:00
6:53 AM,28.9,17.1,61,29.96,10.0,West,9.2,-,N/A,,Clear,280,2012-12-02 13:53:00
7:53 AM,32.0,17.1,54,29.92,10.0,WSW,3.5,-,N/A,,Clear,250,2012-12-02 14:53:00
8:53 AM,42.1,19.9,41,29.85,10.0,West,4.6,-,N/A,,Clear,280,2012-12-02 15:53:00
9:53 AM,46.9,19.9,34,29.84,10.0,SSW,8.1,-,N/A,,Clear,210,2012-12-02 16:53:00
10:53 AM,52.0,15.1,23,29.77,10.0,SSW,9.2,-,N/A,,Clear,200,2012-12-02 17:53:00
11:53 AM,55.0,10.9,17,29.72,10.0,SW,12.7,23.0,N/A,,Clear,220,2012-12-02 18:53:00
12:53 PM,57.9,8.1,14,29.69,10.0,SSW,20.7,28.8,N/A,,Clear,200,2012-12-02 19:53:00
1:53 PM,59.0,3.0,11,29.67,10.0,SSW,17.3,25.3,N/A,,Clear,200,2012-12-02 20:53:00
2:53 PM,57.0,9.0,15,29.66,10.0,South,16.1,-,N/A,,Clear,190,2012-12-02 21:53:00
3:53 PM,52.0,10.9,19,29.66,10.0,South,9.2,-,N/A,,Clear,190,2012-12-02 22:53:00
4:53 PM,46.0,12.9,26,29.69,10.0,South,9.2,-,N/A,,Clear,190,2012-12-02 23:53:00
5:53 PM,42.1,14.0,32,29.70,10.0,SSW,9.2,-,N/A,,Clear,200,2012-12-03 00:53:00
6:53 PM,46.0,12.9,26,29.68,10.0,SSE,4.6,-,N/A,,Clear,150,2012-12-03 01:53:00
7:53 PM,44.1,14.0,30,29.65,10.0,NW,9.2,-,N/A,,Clear,320,2012-12-03 02:53:00
8:53 PM,41.0,12.9,32,29.61,10.0,West,8.1,-,N/A,,Clear,280,2012-12-03 03:53:00
9:53 PM,53.1,15.1,22,29.55,10.0,West,17.3,27.6,N/A,,Clear,280,2012-12-03 04:53:00
10:53 PM,50.0,17.1,27,29.53,10.0,WNW,12.7,24.2,N/A,,Clear,300,2012-12-03 05:53:00
11:53 PM,52.0,21.0,30,29.54,10.0,WNW,20.7,28.8,N/A,,Clear,300,2012-12-03 06:53:00